• In Lithuania
  • List of Countries
  • For 7 days
  • Water Temperature
  • Satellite Maps
  • Weather Map
  • Weather Widgets
  • user-avatar
    Login

    Hourly Weather Tskhaltubo

    Today, 19 June, Tuesday

    Time Temperature Precipitation Wind Pressure Humidity
    00:00 +21°C° 0.4 mm 1 mps 740 mmHg 91%
    01:00 +21°C° 0.1 mm 1 mps 740 mmHg 90%
    02:00 +20°C° 0.1 mm 1 mps 740 mmHg 89%
    03:00 +20°C° 0 mm 1 mps 740 mmHg 88%
    04:00 +20°C° 0.1 mm 1 mps 740 mmHg 86%
    05:00 +21°C° 0.1 mm 1 mps 740 mmHg 85%
    06:00 +21°C° 0.1 mm 1 mps 740 mmHg 84%
    07:00 +23°C° 0 mm 1 mps 740 mmHg 75%
    08:00 +26°C° 0 mm 1 mps 740 mmHg 67%
    09:00 +28°C° 0 mm 1 mps 741 mmHg 59%
    10:00 +29°C° 0.1 mm 1 mps 741 mmHg 56%
    11:00 +30°C° 0.1 mm 2 mps 741 mmHg 54%
    12:00 +31°C° 0.1 mm 2 mps 741 mmHg 51%
    13:00 +30°C° 0.3 mm 2 mps 741 mmHg 53%
    14:00 +30°C° 0.3 mm 2 mps 741 mmHg 55%
    15:00 +30°C° 0.3 mm 2 mps 741 mmHg 56%
    16:00 +29°C° 0.3 mm 2 mps 741 mmHg 61%
    17:00 +28°C° 0.3 mm 2 mps 741 mmHg 66%
    18:00 +27°C° 0.3 mm 2 mps 741 mmHg 71%
    19:00 +25°C° 0.3 mm 1 mps 742 mmHg 78%
    20:00 +23°C° 0.3 mm 1 mps 742 mmHg 85%
    21:00 +22°C° 0.3 mm 1 mps 742 mmHg 92%
    22:00 +21°C° 0.1 mm 1 mps 742 mmHg 91%
    23:00 +21°C° 0.1 mm 1 mps 743 mmHg 89%

    Tomorrow, 20 June, Wednesday

    Time Temperature Precipitation Wind Pressure Humidity
    00:00 +21°C° 0.1 mm 1 mps 743 mmHg 88%
    01:00 +20°C° 0 mm 2 mps 743 mmHg 86%
    02:00 +20°C° 0 mm 2 mps 743 mmHg 85%
    03:00 +20°C° 0 mm 2 mps 743 mmHg 83%
    04:00 +20°C° 0 mm 2 mps 743 mmHg 81%
    05:00 +20°C° 0 mm 2 mps 743 mmHg 79%
    06:00 +21°C° 0 mm 2 mps 743 mmHg 77%
    07:00 +24°C° 0 mm 2 mps 743 mmHg 68%
    08:00 +27°C° 0 mm 1 mps 743 mmHg 60%
    09:00 +29°C° 0 mm 1 mps 743 mmHg 51%
    10:00 +30°C° 0 mm 1 mps 743 mmHg 48%
    11:00 +31°C° 0 mm 2 mps 743 mmHg 46%
    12:00 +32°C° 0 mm 2 mps 743 mmHg 43%
    13:00 +32°C° 0.2 mm 2 mps 743 mmHg 46%
    14:00 +31°C° 0.2 mm 2 mps 743 mmHg 49%
    15:00 +31°C° 0.2 mm 3 mps 743 mmHg 52%
    16:00 +30°C° 0.6 mm 2 mps 743 mmHg 59%
    17:00 +28°C° 0.6 mm 2 mps 743 mmHg 67%
    18:00 +27°C° 0.6 mm 2 mps 743 mmHg 75%
    19:00 +25°C° 0.4 mm 1 mps 743 mmHg 81%
    20:00 +24°C° 0.4 mm 1 mps 744 mmHg 87%
    21:00 +22°C° 0.4 mm 1 mps 744 mmHg 93%
    22:00 +22°C° 0 mm 1 mps 744 mmHg 91%
    23:00 +22°C° 0 mm 1 mps 744 mmHg 90%

    Day after tomorrow, 21 June, Thursday

    Time Temperature Precipitation Wind Pressure Humidity
    00:00 +21°C° 0 mm 1 mps 745 mmHg 89%
    01:00 +20°C° 0 mm 2 mps 744 mmHg 86%
    02:00 +20°C° 0 mm 2 mps 744 mmHg 84%
    03:00 +20°C° 0 mm 2 mps 744 mmHg 81%
    04:00 +20°C° 0 mm 2 mps 744 mmHg 78%
    05:00 +21°C° 0 mm 2 mps 744 mmHg 76%
    06:00 +21°C° 0 mm 2 mps 744 mmHg 73%
    07:00 +25°C° 0 mm 2 mps 744 mmHg 64%
    08:00 +28°C° 0 mm 1 mps 744 mmHg 56%
    09:00 +30°C° 0 mm 1 mps 743 mmHg 48%
    10:00 +31°C° 0 mm 1 mps 743 mmHg 44%
    11:00 +34°C° 0 mm 2 mps 743 mmHg 41%
    12:00 +35°C° 0 mm 2 mps 742 mmHg 37%
    13:00 +35°C° 0 mm 2 mps 742 mmHg 38%
    14:00 +35°C° 0 mm 2 mps 742 mmHg 39%
    15:00 +35°C° 0 mm 3 mps 741 mmHg 39%
    16:00 +34°C° 0.1 mm 2 mps 741 mmHg 47%
    17:00 +31°C° 0.1 mm 2 mps 741 mmHg 56%
    18:00 +30°C° 0.1 mm 2 mps 741 mmHg 64%
    19:00 +28°C° 0.2 mm 2 mps 742 mmHg 70%
    20:00 +26°C° 0.2 mm 1 mps 742 mmHg 77%
    21:00 +24°C° 0.2 mm 1 mps 742 mmHg 83%
    22:00 +24°C° 0 mm 1 mps 742 mmHg 81%
    23:00 +24°C° 0 mm 2 mps 742 mmHg 78%

    22 June, Friday

    Time Temperature Precipitation Wind Pressure Humidity
    00:00 +23°C° 0 mm 2 mps 742 mmHg 76%
    01:00 +23°C° 0 mm 2 mps 742 mmHg 72%
    02:00 +23°C° 0 mm 2 mps 742 mmHg 69%
    03:00 +23°C° 0 mm 2 mps 742 mmHg 65%
    04:00 +23°C° 0 mm 2 mps 741 mmHg 65%
    05:00 +24°C° 0 mm 2 mps 741 mmHg 65%
    06:00 +24°C° 0 mm 2 mps 741 mmHg 64%
    07:00 +26°C° 0.1 mm 2 mps 741 mmHg 58%
    08:00 +28°C° 0.1 mm 2 mps 740 mmHg 51%
    09:00 +31°C° 0.1 mm 2 mps 740 mmHg 45%
    10:00 +32°C° 0 mm 2 mps 740 mmHg 41%
    11:00 +34°C° 0 mm 2 mps 740 mmHg 37%
    12:00 +36°C° 0 mm 2 mps 739 mmHg 33%
    13:00 +36°C° 0 mm 3 mps 739 mmHg 34%
    14:00 +36°C° 0 mm 3 mps 739 mmHg 36%
    15:00 +36°C° 0 mm 3 mps 739 mmHg 37%
    16:00 +34°C° 0.3 mm 3 mps 739 mmHg 46%
    17:00 +31°C° 0.3 mm 2 mps 739 mmHg 56%
    18:00 +30°C° 0.3 mm 2 mps 739 mmHg 65%
    19:00 +28°C° 1 mm 2 mps 739 mmHg 73%
    20:00 +26°C° 1 mm 1 mps 740 mmHg 81%
    21:00 +24°C° 1 mm 1 mps 740 mmHg 89%
    22:00 +24°C° 0.3 mm 1 mps 740 mmHg 88%
    23:00 +24°C° 0.3 mm 1 mps 740 mmHg 87%

    23 June, Saturday

    Time Temperature Precipitation Wind Pressure Humidity
    00:00 +23°C° 0.3 mm 1 mps 740 mmHg 85%
    01:00 +23°C° 0 mm 2 mps 740 mmHg 82%
    02:00 +23°C° 0 mm 2 mps 740 mmHg 79%
    03:00 +21°C° 0 mm 2 mps 740 mmHg 76%
    04:00 +23°C° 0 mm 2 mps 740 mmHg 74%
    05:00 +23°C° 0 mm 1 mps 740 mmHg 71%
    06:00 +23°C° 0 mm 1 mps 740 mmHg 69%
    07:00 +25°C° 0 mm 1 mps 740 mmHg 65%
    08:00 +27°C° 0 mm 1 mps 740 mmHg 60%
    09:00 +29°C° 0 mm 1 mps 740 mmHg 56%
    10:00 +30°C° 0 mm 1 mps 740 mmHg 53%
    11:00 +31°C° 0 mm 1 mps 740 mmHg 50%
    12:00 +32°C° 0 mm 2 mps 740 mmHg 47%
    13:00 +31°C° 0.3 mm 2 mps 740 mmHg 52%
    14:00 +31°C° 0.3 mm 2 mps 740 mmHg 57%
    15:00 +30°C° 0.3 mm 3 mps 740 mmHg 62%
    16:00 +29°C° 0.9 mm 3 mps 740 mmHg 68%
    17:00 +28°C° 0.9 mm 2 mps 740 mmHg 74%
    18:00 +27°C° 0.9 mm 2 mps 741 mmHg 79%
    19:00 +26°C° 0.4 mm 2 mps 741 mmHg 85%
    20:00 +25°C° 0.4 mm 1 mps 741 mmHg 91%
    21:00 +23°C° 0.4 mm 1 mps 742 mmHg 96%
    22:00 +21°C° 0.2 mm 0 mps 742 mmHg 96%
    23:00 +21°C° 0.2 mm 0 mps 742 mmHg 96%

    24 June, Sunday

    Time Temperature Precipitation Wind Pressure Humidity
    00:00 +21°C° 0.2 mm 0 mps 742 mmHg 96%
    01:00 +20°C° 0.1 mm 0 mps 742 mmHg 96%
    02:00 +22°C° 0.1 mm 1 mps 742 mmHg 95%
    03:00 +22°C° 0.1 mm 1 mps 742 mmHg 94%
    04:00 +22°C° 0 mm 1 mps 742 mmHg 92%
    05:00 +23°C° 0 mm 1 mps 743 mmHg 90%
    06:00 +23°C° 0 mm 1 mps 743 mmHg 88%
    07:00 +25°C° 0 mm 1 mps 743 mmHg 80%
    08:00 +27°C° 0 mm 1 mps 743 mmHg 73%
    09:00 +29°C° 0 mm 1 mps 743 mmHg 65%
    10:00 +30°C° 0 mm 2 mps 742 mmHg 60%
    11:00 +31°C° 0 mm 2 mps 742 mmHg 56%
    12:00 +32°C° 0 mm 2 mps 742 mmHg 52%
    13:00 +33°C° 0.1 mm 3 mps 742 mmHg 53%
    14:00 +33°C° 0.1 mm 3 mps 742 mmHg 55%
    15:00 +33°C° 0.1 mm 3 mps 742 mmHg 57%
    16:00 +31°C° 0.2 mm 3 mps 742 mmHg 63%
    17:00 +30°C° 0.2 mm 3 mps 742 mmHg 70%
    18:00 +28°C° 0.2 mm 2 mps 742 mmHg 76%
    19:00 +27°C° 0.1 mm 2 mps 743 mmHg 83%
    20:00 +25°C° 0.1 mm 1 mps 743 mmHg 90%
    21:00 +22°C° 0.1 mm 0 mps 743 mmHg 97%
    22:00 +21°C° 0 mm 0 mps 743 mmHg 96%
    23:00 +21°C° 0 mm 0 mps 743 mmHg 95%
    Show more